Regional Weather Roundup
Issued by NWS Jackson, KY

Home | Current Version | Previous Version | Graphics & Text | Print | Product List | Glossary On
Versions: 1 2 3 4 5 6 7 8 9 10 11 12 13 14 15 16 17 18 19 20 21 22 23 24 25 26 27 28 29 30 31 32 33 34 35 36 37 38 39 40 41 42 43 44 45 46 47 48 49 50
474
ASUS43 KJKL 101510
RWRJKL

EAST KENTUCKY HOURLY WEATHER ROUNDUP
NATIONAL WEATHER SERVICE JACKSON KY
1000 AM EST SUN DEC 10 2017

NOTE: "FAIR" INDICATES FEW OR NO CLOUDS BELOW 12,000 FEET WITH
NO SIGNIFICANT WEATHER AND/OR OBSTRUCTIONS TO VISIBILITY.

* THESE REPORTS ARE NOT UNDER NWS QUALITY CONTROL AND MAY NOT
  REPORT WEATHER SUCH AS PRECIPITATION AND FOG.

KYZ079-080-083-085-087-088-110-112-115-119-120-101600
...EASTERN KENTUCKY...

CITY           SKY/WX    TMP DP  RH WIND       PRES   REMARKS
JACKSON        SUNNY     28  17  63 VRB5      30.18R WCI  23
LONDON         SUNNY     28  19  69 S6        30.21S WCI  22
SOMERSET*      SUNNY     28  18  64 SW10      30.24F WCI  19
MONTICELLO*    SUNNY     34  22  61 VRB3      30.25F
WILLIAMSBURG*  SUNNY     28  18  64 SW8       30.23S WCI  20
MIDDLESBORO*   SUNNY     30  18  60 CALM      30.24S
HARLAN APT*    SUNNY     30  18  59 CALM      30.21R
PIKE CO APT*   PTSUNNY   29  19  67 CALM      30.17S
BIG SANDY APT* PTSUNNY   29  19  66 SW6       30.18S WCI  23
MOREHEAD APT*  SUNNY     28  18  64 SW12      30.19F WCI  18
$$

KYZ035-036-041-042-044-050-067-078-099-101600
...CENTRAL KENTUCKY...

CITY           SKY/WX    TMP DP  RH WIND       PRES   REMARKS
MT STERLING*   SUNNY     27  19  74 W13       30.20S WCI  16
FLEMING/MASON* SUNNY     28  19  69 SW13      30.17F WCI  18
DANVILLE*      PTSUNNY   28  19  69 S8        30.21S WCI  20
LEXINGTON      PTSUNNY   27  18  69 SW12      30.18S WCI  17
FRANKFORT      CLOUDY    28  17  63 SW12      30.17S WCI  18
LOUISVILLE     PTSUNNY   31  18  58 SW12      30.19R WCI  22
LEBANON*       PTSUNNY   28  19  69 S9        30.20S WCI  20
GLASGOW*       SUNNY     30  21  69 SW7       30.22F WCI  23
BOWLING GREEN  SUNNY     31  20  63 SW8       30.24F WCI  23
$$

KYZ091>093-OHZ055-061-077-WVZ005-015-034-035-042-101600
...SOUTHERN OHIO/WEST VIRGINIA...

CITY           SKY/WX    TMP DP  RH WIND       PRES   REMARKS
COVINGTON      CLOUDY    25  18  74 SW13      30.12R WCI  14
COLUMBUS       PTSUNNY   27  18  69 SW13      30.09R WCI  16
DAYTON         CLOUDY    22  17  81 SW14      30.08R WCI   9
WILMINGTON     CLOUDY    23  18  81 SW12      30.10R WCI  12
HUNTINGTON     PTSUNNY   29  17  61 SW13G21   30.16S WCI  19
CHARLESTON     CLOUDY    31  21  66 SW7       30.15R WCI  24
PINEVILLE*       N/A     28  20  72 MISG      30.19S
BECKLEY        CLOUDY    24  16  71 W13       30.08R WCI  12
BLUEFIELD      CLOUDY    22  14  71 W10G24    30.07R WCI  11
LOGAN CO APT*  CLOUDY    28  19  69 CALM      30.13S
$$

VAZ002-007-008-TNZ017-027-036-066-071-101600
...SOUTHWEST VIRGINIA/EAST TENNESSEE...

CITY           SKY/WX    TMP DP  RH WIND       PRES   REMARKS
WISE*          PTSUNNY   27  19  74 SW9       30.12S WCI  17
JONESVILLE*      N/A     30  18  59 SW5       30.24S WCI  25
ABINGDON*      CLOUDY    29  19  66 W10       30.17R WCI  20
BRISTOL        PTSUNNY   31  19  61 SW10      30.21R WCI  22
MORRISTOWN*    SUNNY     32  18  55 SW12      30.23S WCI  23
SEVIERVILLE*   SUNNY     34  18  51 SW12      30.26R WCI  25
KNOXVILLE      SUNNY     32  21  64 SW8       30.26R WCI  25
LAFOLLETTE*    SUNNY     32  18  55 VRB6      30.27F WCI  26
OAK RIDGE      SUNNY     32  18  56 VRB5      30.27S WCI  27
CROSSVILLE     SUNNY     27  18  69 VRB7      30.21S WCI  19
NASHVILLE      SUNNY     32  20  61 S9        30.28S WCI  24
$$

...KEY TO REMARKS...
VSB - VISIBILITY IN MILES
WCI - WIND CHILL INDEX
HX  - HEAT INDEX

$$




USA.gov is the U.S. government's official web portal to all federal, state and local government web resources and services.